Location: *
(47.6569°N, 7.4256°E)
Time: 09:26:11
(UTC+00:00)

CZ-4C R/B - Pass Details

Date: 14 December 2019
Orbit: 646 x 1356 km, 63.4° (Epoch: 28 January)

Event Time Altitude Azimuth Distance (km) Brightness Sun altitude
Rises 17:42:43 0° 189° (S) 3,043 5.4 -19.8°
Reaches altitude 10° 17:45:03 10° 180° (S) 2,192 4.5 -20.2°
Enters shadow 17:49:22 34° 120° (ESE) 1,258 2.7 -20.9°
